Other Public Products
Issued by NWS Grand Forks, ND

Home | Current Version | Previous Version | Text Only | Print | Product List | Glossary Off
Versions: 1 2 3 4 5 6 7 8 9 10 11 12 13 14 15 16 17 18 19 20 21 22 23 24 25 26 27 28 29 30 31 32 33 34 35 36 37 38 39 40 41 42 43 44 45 46 47 48 49 50

000
FPUS83 KFGF 170410
OPUFGF
PRAIRIE TO PINES WEATHER ROUNDUP
NATIONAL WEATHER SERVICE EASTERN NORTH DAKOTA/GRAND FORKS ND
1100 PM CDT TUE SEP 16 2014

 **SATELLITE DATA USED TO AUGMENT SKY COVER AT AUTOMATED STATIONS**
 *****  WEATHER ACROSS EASTERN NORTH DAKOTA  *****

CITY           SKY/WX    TMP DP  RH WIND       PRES   REMARKS
GRAND FORKS    CLEAR     51  44  77 S7        29.91S
GRAND FORKS AF CLEAR     53  44  72 S6        29.92S
GRAND CITY NWS   N/A     54 N/A N/A S3          N/A
BUXTON         NOT AVBL
DEVILS LAKE    CLEAR     57  41  54 S3        29.90F
FARGO          CLEAR     55  46  71 E7        29.93S
WAHPETON ARPT  MOCLDY    54  45  71 SE9       29.93F
$$

 *****  WEATHER ACROSS CENTRAL AND WESTERN NORTH DAKOTA  *****

CITY           SKY/WX    TMP DP  RH WIND       PRES   REMARKS
JAMESTOWN      CLEAR     48  44  86 N3        29.91F
BISMARCK       CLEAR     52  46  80 NE5       29.92S
MINOT          CLEAR     54  46  74 CALM      29.91R
MINOT AFB      CLEAR     46  44  92 SW7       29.91R
GARRISON         N/A     47  41  80 CALM      29.92R
WILLISTON      CLEAR     48  40  73 N5        29.92R
DICKINSON      PTCLDY    48  41  76 SE5       29.93S
HETTINGER      CLOUDY    55  46  71 NE3       29.95R
$$

 *****  OTHER OBSERVATIONS NORTHEAST NORTH DAKOTA  *****

CITY           SKY/WX    TMP DP  RH WIND       PRES   REMARKS
WALHALLA         N/A     50  48  93 SW3       29.89S
LANGDON        FAIR      45  37  76 SW9       29.91S
CAVALIER       FAIR      52  45  76 SW3       29.89S
GRAFTON        FAIR      52  43  71 SW6       29.90S
CANDO          FAIR      48  43  81 CALM      29.92S
FORT TOTTEN    NOT AVBL
ROLLA          FAIR      46  41  81 W7        29.92S
RUGBY          FAIR      50  46  87 SE5       29.91S
 ***** THE ABOVE OBSERVATIONS ARE NON NWS ARE NOT QUALITY
        CONTROLLED AND MAY MIS-REPORT RAIN FOR SNOW...
$$

 *****  OTHER OBSERVATIONS SOUTHEAST NORTH DAKOTA *****

CITY           SKY/WX    TMP DP  RH WIND       PRES   REMARKS
COOPERSTOWN    NOT AVBL
VALLEY CITY    FAIR      55  46  71 E5        29.92S
OAKES            N/A     50  50 100 E3        29.91F
GWINNER        CLEAR     54  52  94 S5        29.92F
SHEYENNE NWR     N/A     52  48  85 SE3       29.95S
BUFFALO        NOT AVBL
WYNDMERE         N/A     54  48  82 E3          N/A
 ***** THE ABOVE OBSERVATIONS ARE NON NWS ARE NOT QUALITY
       CONTROLLED AND MAY MIS-REPORT RAIN FOR SNOW...
$$

  *****  WEATHER ACROSS NORTHERN MINNESOTA  *****

CITY           SKY/WX    TMP DP  RH WIND       PRES   REMARKS
FLAG ISLAND    CLOUDY    57  54  88 S7        29.87F
WARROAD        CLOUDY    54  50  87 CALM      29.89F
ROSEAU         MOCLDY    52  46  82 SW7       29.89F
HALLOCK        CLEAR     50  43  76 S7        29.89S
THF RVR FALLS  CLEAR     52  39  62 S7        29.93S
HALSTAD          N/A     48  43  82 SE8         N/A
FOSSTON        CLEAR     45  39  81 S6        29.96S
BAUDETTE       CLOUDY    53  49  86 S3        29.89F
WASKISH        PTCLDY    57  46  67 CALM      29.92F
CROOKSTON      CLEAR     50  43  76 S8        29.93F
$$
  *****  WEATHER ACROSS CENTRAL AND WEST MINNESOTA  *****

CITY           SKY/WX    TMP DP  RH WIND       PRES   REMARKS
BEMIDJI        CLEAR     51  42  70 SW3       29.96S
PARK RAPIDS    CLEAR     48  41  76 CALM      29.98S
WADENA         PTCLDY    46  43  87 CALM      29.97F
DETROIT LAKES  PTCLDY    54  45  71 CALM      29.98S
MOORHEAD       CLEAR     55  48  76 E5        29.94S
FERGUS FALLS   PTCLDY    57  45  62 SE8       29.95S
ELBOW LAKE     FAIR      56  48  74 SE6       29.96S
MORRIS MN      PTCLDY    55  48  76 SE5       29.95S
STAPLES        MOCLDY    46  45  93 CALM      29.98F
WHEATON        PTCLDY    48  46  93 SE7       29.96S
$$
  *****  WEATHER ELSEWHERE ACROSS MINNESOTA  *****

CITY           SKY/WX    TMP DP  RH WIND       PRES   REMARKS
DULUTH         CLEAR     55  42  61 SW12      29.98F
INTRNTL FALLS  CLOUDY    51  49  92 S3        29.91F
ELY            MOCLDY    50  46  87 CALM      29.95S
CLOQUET        CLEAR     52  43  71 SW6       29.99S
BRAINERD       CLEAR     45  43  93 CALM      29.99F
HIBBING        CLOUDY    51  43  74 CALM      29.97S
ALEXANDRIA     PTCLDY    52  46  80 SE7       29.98F
SAINT CLOUD    MOCLDY    57  47  69 SE5       29.99F
MINNEAPOLIS    PTCLDY    57  45  64 SE3       30.01S
$$

  *****  WEATHER ACROSS SOUTH DAKOTA  *****

CITY           SKY/WX    TMP DP  RH WIND       PRES   REMARKS
SIOUX FALLS    CLOUDY    62  49  62 S9        29.97S
BROOKINGS      NOT AVBL
WATERTOWN      MOCLDY    58  50  75 SE9       29.94F
HURON          CLEAR     59  53  80 S9        29.91S
SISSETON         N/A     58  54  86 S5        29.92F
ABERDEEN       CLEAR     51  50  96 E3        29.91S
MITCHELL       PTCLDY    58  53  84 SE9       29.92F
PIERRE         MOCLDY    59  50  72 CALM      29.88F
MOBRIDGE       PTCLDY    60  53  77 E13       29.88S
RAPID CITY     CLEAR     55  46  71 W7        29.96S
$$

  *****  SOME WEATHER IN NEARBY STATES *****

CITY           SKY/WX    TMP DP  RH WIND       PRES   REMARKS
GLASGOW MT     CLEAR     58  43  57 E12       29.89R
GREAT FALLS MT CLOUDY    64  45  49 W10       29.90F
CHEYENNE WY    PTCLDY    58  38  47 W7        30.16F
SCOTTSBLUFF NE CLEAR     59  50  72 E8        30.01R
OMAHA NE       CLOUDY    63  50  62 SE7       30.01F
DES MOINES IA  PTCLDY    56  49  77 SE6       30.06F
DAVENPORT IA   CLEAR     47  43  86 CALM      30.09S
CHICAGO IL     CLEAR     55  47  74 SE3       30.09F
EAU CLAIRE WI  CLEAR     46  44  93 CALM      30.03F
LA CROSSE WI   CLEAR     51  47  86 SE6       30.05F
$$

  *****  SOME NATIONAL WEATHER *****

CITY           SKY/WX    TMP DP  RH WIND       PRES   REMARKS
LA GUARDIA NY  PTCLDY    65  50  58 NW5       30.02R
RALEIGH NC     CLOUDY    70  67  90 CALM      29.98S
ATLANTA GA     PTCLDY    75  67  76 NW5       30.01R
NEW ORLEANS LA CLOUDY    77  73  87 N8        30.02F
OKLAHOMA CITY  PTCLDY    75  68  78 SE6       30.02S
ALBUQUERQUE NM CLOUDY    63  55  75 SE8       30.24S
SALT LAKE CITY CLEAR     75  42  30 SE9       29.97R
LOS ANGELES CA PTCLDY    77  62  59 CALM      29.72R
BOISE ID       CLEAR     79  41  25 SE10      29.82R
SEATTLE WA     CLOUDY    64  54  69 SW3       29.89S
$$

*** WEATHER ACROSS MANITOBA...SASKATCHEWAN AND ONTARIO ***
                ***ONTARIO***

CITY           SKY/WX    TMP DP  RH WIND       PRES   REMARKS
GERALDTON      CLOUDY    34  28  80 E3        30.03S
THUNDER BAY    CLOUDY    46  39  76 E9        30.01F
SIOUX LOOKOUT  LGT RAIN  43  34  70 E5        29.94F
TORONTO        PTCLDY    50  43  76 W6        30.05S
BIG TROUT LK   CLOUDY    37  21  52 NW6       30.05R
PICKLE LAKE    NOT AVBL
DRYDEN         CLOUDY    45  39  81 E7        29.90F
KENORA         CLOUDY    52  46  82 SE6       29.88F
$$
                *** MANITOBA***

CITY           SKY/WX    TMP DP  RH WIND       PRES   REMARKS
BRANDON        CLEAR     46  45  93 S7        29.89F
DAUPHIN        CLOUDY    50  45  81 E10       29.94S
ISLAND LAKE    MOCLDY    37  27  65 N6        30.09S
PILOT MOUND      N/A     50  41  71 S3          N/A
THE PAS        CLOUDY    36  34  93 E7        30.09R
THOMPSON       MOCLDY    27  25  93 N2        30.12R
WINNIPEG       PTCLDY    54  48  82 SW6       29.86F
LYNN LAKE      CLEAR     30  21  69 CALM      30.13R
CHURCHILL      CLOUDY    34  23  64 N20       30.07R WCI  22
GILLAM         CLOUDY    37  23  56 NW12      30.10S
$$
                ***SASKATCHEWAN***

CITY           SKY/WX    TMP DP  RH WIND       PRES   REMARKS
ESTEVAN        PTCLDY    54  43  66 S3        29.91R
KINDERSLEY     CLEAR     55  45  67 E8        29.88R
LLOYDMINSTER   PTCLDY    57  41  54 SE8       29.87R
PRINCE ALBERT  CLOUDY    41  39  93 E15G22    29.99R
REGINA         PTCLDY    52  45  76 SE7       29.88S


USA.gov is the U.S. government's official web portal to all federal, state and local government web resources and services.